This demonstration page uses our WeatherBlox Daily Observations layout. Learn more.

36.17497, -115.13722

Hourly Observations for April 26, 2018

Temp ( °F °C ) Dew Point ( °F °C ) Humidity (%) Winds ( mph kmh ) Pressure ( in mb ) Visibility ( mi km ) Precip ( " mm )
12:53 am 00:53 Clear 75 23.9 23 -5 14 14 NW 6 9 29.85 1011 10 16.09344 0 0
1:53 am 01:53 Clear 71 21.7 26 -3.3 19 19 NW 7 11 29.85 1011 10 16.09344 0 0
2:53 am 02:53 Clear 72 22.2 25 -3.9 17 17 WSW 5 7 29.85 1011 10 16.09344 0 0
3:53 am 03:53 Clear 71 21.7 24 -4.4 17 17 Calm 29.85 1011 10 16.09344 0 0
4:53 am 04:53 Clear 68 20 23 -5 18 18 N 7 11 29.85 1011 10 16.09344 0 0
5:53 am 05:53 Clear 67 19.4 24 -4.4 20 20 Calm 29.88 1012 10 16.09344 0 0
6:53 am 06:53 Sunny 69 20.6 29 -1.7 22 22 NW 5 7 29.91 1013 10 16.09344 0 0
7:53 am 07:53 Sunny 75 23.9 25 -3.9 15 15 Calm 29.91 1013 10 16.09344 0 0
8:53 am 08:53 Sunny 78 25.6 25 -3.9 14 14 Calm 29.91 1013 10 16.09344 0 0
9:53 am 09:53 Sunny 82 27.8 22 -5.6 11 11 ESE 3 6 29.91 1013 10 16.09344 0 0
10:53 am 10:53 Sunny 86 30 18 -7.8 8 8 ESE 10 17 29.91 1013 10 16.09344 0 0
11:53 am 11:53 Sunny 89 31.7 18 -7.8 7 7 E 9 15 29.91 1013 10 16.09344 0 0
12:53 pm 12:53 Sunny 90 32.2 16 -8.9 6 6 Calm 29.88 1012 10 16.09344 0 0
1:53 pm 13:53 Sunny 92 33.3 17 -8.3 6 6 ESE 9 15 29.85 1011 10 16.09344 0 0
2:53 pm 14:53 Sunny 94 34.4 16 -8.9 6 6 ENE 9 15 29.83 1010 10 16.09344 0 0
3:53 pm 15:53 Sunny 94 34.4 15 -9.4 5 5 N 6 9 29.8 1009 10 16.09344 0 0
4:53 pm 16:53 Sunny 93 33.9 15 -9.4 6 6 SW 6 9 29.8 1009 10 16.09344 0 0
5:53 pm 17:53 Sunny 93 33.9 13 -10.6 5 5 ESE 6 9 29.77 1008 10 16.09344 0 0
6:53 pm 18:53 Sunny 92 33.3 13 -10.6 5 5 E 5 7 29.74 1007 10 16.09344 0 0
7:53 pm 19:53 Clear 89 31.7 16 -8.9 7 7 E 5 7 29.74 1007 10 16.09344 0 0
8:53 pm 20:53 Clear 87 30.6 20 -6.7 8 8 W 5 7 29.77 1008 10 16.09344 0 0
9:53 pm 21:53 Clear 84 28.9 23 -5 10 10 W 6 9 29.77 1008 10 16.09344 0 0
10:53 pm 22:53 Clear 80 26.7 23 -5 12 12 NNW 7 11 29.77 1008 10 16.09344 0 0
11:53 pm 23:53 Clear 79 26.1 27 -2.8 15 15 SW 3 6 29.77 1008 10 16.09344 0 0

Powered by AerisWeather